sat.trackr.live / text

‹ back to catalog

ONEWEB-0161

NORAD 48053 · 2021-025M

PAYLOAD ACTIVE UNKNOWN

§ Identity

Operator
Country
UK
Launch date
2021-03-25
Launch site
VOSTO
Launch vehicle
Mass (kg)
RCS (m²)

Purposes: comms

External: N2YO · Heavens-Above · Gunter

§ Orbital elements

Epoch: 2026-05-25T00:15:46.276128Z

Period
109.63 min
Inclination
87.8943°
Eccentricity
0.0001767
Mean motion
13.13469423 rev/d
Perigee alt
1,208.4 km
Apogee alt
1,211.1 km
Semi-major
7,587.9 km
B*
3.5305e-4
RAAN
324.8364°
Arg perigee
98.5433°
Mean anomaly
261.5897°
Rev number
25,046

§ Raw data

ONEWEB-01611 48053U 21025M   26145.01095227  .00000142  00000+0  35305-3 0  99992 48053  87.8943 324.8364 0001767  98.5433 261.5897 13.13469423250465

JSON: /api/v1/satellites/48053 · /tle

For live sub-satellite position, see the globe view (requires WebGL).

§ Visibility from observer

Set your observer location to see the next 7 days of passes ≥ 10°. The values pass through the URL so the page stays shareable.

No JS? Fill the form by hand. The geolocation button needs JavaScript.